Location: Fernhill
(41.0167°S, 175.6333°E)
Time: 10:07:52
(UTC+00:00)

Cosmos 1833 Rocket - Pass Details

Date: 15 February 2026
Orbit: 832 x 838 km, 71.0° (Epoch: 7 March)

Event Time Altitude Azimuth Distance (km) Brightness Sun altitude
Exits shadow 13:46:42 41° 193° (SSW) 1,203 3.7 -33.7°
Drops below altitude 10° 13:50:43 10° 165° (SSE) 2,478 5.9 -33.4°
Sets 13:53:15 0° 160° (SSE) 3,419 6.9 -33.2°
